[[{"header":{"parameterUnit":"m.s-1","parameterCategory":1,"la1":30.2991,"la2":30.254,"lo1":-89.0895,"lo2":-89.0444,"dy":0.0017,"dx":0.0017,"nx":28,"ny":28,"refTime":"2025-03-30T09:00:00:Z","depth":0,"parameterNumber":2,"parameterNumberName":"U-component_of_WINDS"},"data":[0,0,0,0,0,0,0,0,0,0,0,0,0,0,0,0,0,0,0,0,0,0,0,0,0,0,0,0,0,0,0,0,0,0,0,0,0,0,0,0,0,0,0,0,0,0,0,0,0,0,0,0,0,0,0,0,0,0,1.475,1.475,0,1.4779,1.4779,1.478,1.4742,1.4741,1.4739,1.4738,1.477,1.4772,1.4775,0,0,0,0,0,0,0,0,0,0,0,0,0,1.4665,1.4667,1.475,1.475,1.475,1.4779,1.4779,1.478,1.4742,1.4741,1.4739,1.4737,1.477,1.4772,1.4775,0,0,0,0,0,0,0,0,0,0,0,0,0,1.4699,1.4668,1.475,1.4735,1.4734,1.4779,1.4779,1.478,1.4743,1.4741,1.4739,1.4737,1.4769,1.4772,1.4775,1.4836,0,0,1.4785,1.4786,0,0,0,0,0,0,0,0,1.4697,1.4702,1.4737,1.4736,1.4735,1.4755,1.4761,1.4799,1.4743,1.474,1.4738,1.4736,1.4767,1.477,1.478,1.4838,1.4839,1.4785,1.4787,1.4789,1.4789,0,0,0,0,0,0,0,1.4695,1.4701,1.4761,1.4738,1.4737,1.4728,1.4731,1.4768,1.4765,1.474,1.4737,1.4741,1.4766,1.4777,1.4781,1.4839,1.4785,1.4788,1.479,1.4791,1.495,1.4953,0,0,0,0,0,0,1.4694,1.4699,1.476,1.4762,1.4711,1.4732,1.4734,1.4751,1.4764,1.4764,1.4743,1.4739,1.4773,1.4777,1.4782,1.4855,1.4788,1.4791,1.4793,1.4948,1.4951,1.4953,0,0,0,0,0,0,1.4692,1.47,1.4759,1.473,1.4737,1.4735,1.4754,1.4752,1.4763,1.4766,1.4766,1.4754,1.4771,1.4777,1.4823,1.4856,1.4793,1.4796,1.4945,1.4949,1.4952,1.5001,0,0,0,0,0,0,1.469,1.4699,1.4721,1.4731,1.4739,1.4799,1.4756,1.4754,1.4769,1.4764,1.4777,1.4777,1.477,1.4819,1.4826,1.4859,1.4798,1.4942,1.4947,1.4951,1.4997,1.5006,1.5014,0,0,0,0,0,1.4687,1.4734,1.4723,1.473,1.4766,1.4801,1.4805,1.4796,1.4771,1.4794,1.4797,1.4777,1.4851,1.4824,1.4832,1.4866,1.494,1.4946,1.4951,1.4993,1.5004,1.5014,0,0,0,0,0,0,1.4728,1.4735,1.4722,1.4773,1.4787,1.4794,1.4823,1.4808,1.4829,1.4824,1.4812,1.4815,1.4864,1.487,1.4839,1.4927,1.4892,1.4899,1.4921,1.4932,1.494,1.4938,1.4801,0,0,0,0,0,1.4744,1.4771,1.4775,1.482,1.4827,1.4824,1.4839,1.483,1.4844,1.485,1.4855,1.487,1.4897,1.4915,1.4939,1.4998,1.5001,1.5026,1.5034,1.5041,1.5048,1.5081,1.5092,1.497,1.497,1.497,0,0,1.4775,1.4782,1.48,1.4829,1.4838,1.4867,1.4829,1.4861,1.4883,1.4855,1.4898,1.4903,1.4919,1.4972,1.4996,1.4978,1.5082,1.5048,1.5053,1.5056,1.5087,1.5099,1.5109,1.4974,1.4973,1.4973,0,0,1.4847,1.4855,1.4894,1.4904,1.4919,1.4917,1.4927,1.4937,1.4939,1.4983,1.4963,1.4989,1.5035,1.5048,1.5061,1.5141,1.5124,1.5149,1.5194,1.5226,1.5236,1.5245,1.5274,1.5285,1.5156,1.5156,1.5156,0,1.4885,1.4927,1.4916,1.495,1.4964,1.494,1.498,1.4991,1.5014,1.5025,1.5005,1.5063,1.5072,1.5129,1.5148,1.5159,1.5171,1.5147,1.5235,1.5244,1.5252,1.528,1.5291,1.5159,1.5158,1.5158,1.5158,0,1.4973,1.5003,1.5033,1.5055,1.5073,1.511,1.5106,1.5125,1.5116,1.5117,1.5163,1.5173,1.52,1.5213,1.5204,1.5269,1.5258,1.5237,1.5202,1.5266,1.5293,1.5303,1.5163,1.5162,1.5161,1.516,0,0,1.507,1.5087,1.5099,1.5109,1.5125,1.5149,1.5186,1.5212,1.523,1.5247,1.5279,1.5319,1.5301,1.5315,1.5308,1.5336,1.5401,1.5312,1.5313,1.5329,1.5475,1.549,1.5503,1.539,1.5392,1.5394,1.5474,0,1.5143,1.5206,1.5198,1.5259,1.5288,1.5267,1.53,1.5314,1.5316,1.5342,1.5345,1.5374,1.5347,1.5356,1.5383,1.5387,1.543,1.5381,1.5421,1.5423,1.5418,1.5517,1.5533,1.5607,1.5484,1.5486,1.5487,0,1.5236,1.5257,1.5321,1.5334,1.5346,1.5375,1.54,1.5424,1.5441,1.5441,1.5458,1.5446,1.5485,1.545,1.5504,1.5472,1.5488,1.5493,1.5495,1.5499,1.5458,1.5523,1.5631,1.5642,1.5503,1.5502,1.55,0,1.5301,1.5345,1.539,1.54,1.5416,1.5438,1.5446,1.546,1.5477,1.5499,1.5511,1.5537,1.5552,1.5574,1.557,1.5544,1.5627,1.559,1.5629,1.5629,1.5647,1.5646,1.5759,1.5657,1.5657,1.5656,1.5656,0,1.5383,1.5424,1.542,1.5447,1.5492,1.5484,1.5529,1.5535,1.5549,1.5578,1.5562,1.559,1.5583,1.5612,1.561,1.5657,1.5663,1.5665,1.5664,1.5667,1.5667,1.5677,1.5672,1.5659,1.5659,1.5658,1.5658,0,1.5463,1.5462,1.551,1.5522,1.5526,1.5559,1.5571,1.5597,1.5599,1.5636,1.5645,1.5648,1.5681,1.568,1.5717,1.5716,1.5774,1.5767,1.5768,1.5767,1.5805,1.5802,1.593,1.5947,1.5833,1.5834,1.5835,0,1.5516,1.5546,1.5563,1.5581,1.5591,1.562,1.5638,1.5632,1.5651,1.5674,1.5698,1.573,1.5754,1.5808,1.5815,1.5844,1.5838,1.5881,1.5842,1.5844,1.584,1.5838,1.5842,1.5888,1.5889,1.589,1.5891,0,1.5609,1.5608,1.5633,1.566,1.5681,1.5702,1.5721,1.5737,1.5733,1.5756,1.579,1.5809,1.5848,1.588,1.5909,1.5918,1.5905,1.5904,1.5914,1.5917,1.5917,1.5919,1.5789,1.59,1.59,1.5899,1.5898,1.5898,1.5677,1.5704,1.572,1.575,1.5764,1.5783,1.5809,1.5815,1.5842,1.5873,1.5868,1.5906,1.5925,1.5962,1.5974,1.6005,1.599,1.6005,1.6009,1.6013,1.6018,1.5912,1.601,1.601,1.601,1.6009,1.6009,0,1.577,1.578,1.5808,1.5835,1.5859,1.5845,1.5866,1.5887,1.592,1.5938,1.5964,1.6003,1.6035,1.6045,1.6076,1.6099,1.6094,1.6107,1.6106,1.6109,1.6029,1.6017,1.6111,1.6111,1.6111,1.6111,1.6111,1.6111,1.5821,1.5866,1.5868,1.5921,1.5931,1.5967,1.5981,1.5999,1.6013,1.6058,1.6084,1.6091,1.6106,1.6139,1.6168,1.617,1.6183,1.6199,1.6199,1.6124,1.6114,1.6104,1.6093,1.6202,1.6202,1.6276,1.6277,1.6278]},{"header":{"parameterUnit":"m.s-1","parameterCategory":1,"la1":30.2991,"la2":30.254,"lo1":-89.0895,"lo2":-89.0444,"dy":0.0017,"dx":0.0017,"nx":28,"ny":28,"refTime":"2025-03-30T09:00:00:Z","depth":0,"parameterNumber":3,"parameterNumberName":"V-component_of_WINDS"},"data":[0,0,0,0,0,0,0,0,0,0,0,0,0,0,0,0,0,0,0,0,0,0,0,0,0,0,0,0,0,0,0,0,0,0,0,0,0,0,0,0,0,0,0,0,0,0,0,0,0,0,0,0,0,0,0,0,0,0,1.3683,1.3684,0,1.3755,1.3755,1.3756,1.3765,1.3765,1.3764,1.3763,1.3836,1.3839,1.3841,0,0,0,0,0,0,0,0,0,0,0,0,0,1.3554,1.3557,1.3683,1.3684,1.3685,1.3755,1.3755,1.3756,1.3766,1.3765,1.3764,1.3763,1.3835,1.3838,1.3842,0,0,0,0,0,0,0,0,0,0,0,0,0,1.3617,1.3558,1.3683,1.3698,1.37,1.3754,1.3756,1.3757,1.3766,1.3765,1.3764,1.3763,1.3834,1.3838,1.3842,1.3886,0,0,1.3854,1.3855,0,0,0,0,0,0,0,0,1.3613,1.3621,1.3695,1.3697,1.3699,1.375,1.3737,1.38,1.3766,1.3741,1.3763,1.3762,1.3808,1.3814,1.383,1.389,1.3893,1.3854,1.3856,1.3858,1.3859,0,0,0,0,0,0,0,1.3609,1.3618,1.3712,1.3696,1.3699,1.3701,1.3709,1.3749,1.3779,1.3743,1.3744,1.3752,1.3809,1.3826,1.3832,1.3894,1.3854,1.3857,1.386,1.3861,1.3994,1.3995,0,0,0,0,0,0,1.3602,1.3615,1.3709,1.3714,1.3653,1.3704,1.3713,1.3735,1.3779,1.3785,1.3753,1.3752,1.382,1.3827,1.3834,1.389,1.3858,1.3862,1.3864,1.3993,1.3994,1.3995,0,0,0,0,0,0,1.3599,1.361,1.3706,1.3664,1.3677,1.3707,1.3732,1.3737,1.3754,1.3787,1.3792,1.3765,1.382,1.3829,1.3873,1.3893,1.3863,1.3867,1.3991,1.3993,1.3995,1.4001,0,0,0,0,0,0,1.3595,1.3609,1.3626,1.3665,1.3679,1.3745,1.3733,1.3739,1.376,1.376,1.3799,1.3804,1.3819,1.3868,1.3877,1.3898,1.387,1.399,1.3992,1.3994,1.4,1.4003,1.4006,0,0,0,0,0,1.3591,1.3625,1.3627,1.3639,1.3702,1.3746,1.3754,1.3771,1.3762,1.378,1.3801,1.3803,1.3888,1.3872,1.3883,1.3905,1.3989,1.3991,1.3994,1.3998,1.4003,1.4006,0,0,0,0,0,0,1.3589,1.3631,1.3633,1.3682,1.371,1.3747,1.377,1.3775,1.3806,1.3805,1.3824,1.3833,1.3877,1.3895,1.3876,1.395,1.3938,1.3943,1.3937,1.3942,1.3945,1.394,1.3873,0,0,0,0,0,1.3594,1.3626,1.3661,1.37,1.3714,1.374,1.376,1.377,1.38,1.3812,1.3837,1.3866,1.3899,1.3921,1.3953,1.4001,1.4011,1.4022,1.4025,1.4027,1.4032,1.406,1.4066,1.4004,1.4004,1.4004,0,0,1.3605,1.3632,1.3651,1.3701,1.3724,1.3757,1.375,1.3785,1.3811,1.3818,1.3862,1.388,1.3914,1.3961,1.3982,1.3977,1.4051,1.4031,1.4033,1.4036,1.4063,1.4069,1.4074,1.4006,1.4006,1.4006,0,0,1.3643,1.3666,1.3702,1.3725,1.376,1.3777,1.3785,1.3822,1.3834,1.3879,1.3885,1.3914,1.3971,1.3995,1.4015,1.4061,1.4065,1.4071,1.4089,1.4115,1.412,1.4125,1.4143,1.4149,1.4075,1.4075,1.4075,0,1.3653,1.3704,1.372,1.3755,1.3777,1.3784,1.3821,1.3842,1.3886,1.3901,1.3894,1.3966,1.3989,1.4042,1.4053,1.4068,1.4079,1.4068,1.4118,1.4123,1.4127,1.4144,1.4151,1.4075,1.4075,1.4075,1.4075,0,1.3714,1.3749,1.3774,1.3816,1.384,1.3876,1.3897,1.3919,1.3927,1.3944,1.3989,1.4017,1.4056,1.4068,1.4076,1.4122,1.4118,1.4114,1.4103,1.4133,1.415,1.4157,1.4076,1.4076,1.4076,1.4076,0,0,1.3756,1.3806,1.3815,1.3834,1.3873,1.39,1.3935,1.3973,1.3993,1.4022,1.4053,1.41,1.4097,1.412,1.413,1.4153,1.4189,1.4146,1.4148,1.4155,1.4243,1.4247,1.4254,1.419,1.4192,1.4193,1.4241,0,1.38,1.3864,1.3879,1.3934,1.3967,1.3974,1.4005,1.4032,1.4048,1.4078,1.4096,1.413,1.4123,1.4136,1.4159,1.418,1.4207,1.4176,1.4221,1.4222,1.4214,1.4263,1.4268,1.4312,1.4247,1.4248,1.4249,0,1.386,1.3891,1.395,1.3984,1.3999,1.4027,1.4062,1.4091,1.4121,1.4131,1.4156,1.4163,1.4201,1.4185,1.4238,1.4216,1.4235,1.4247,1.4249,1.4256,1.4239,1.4273,1.4326,1.4333,1.4259,1.4258,1.4257,0,1.3887,1.3943,1.3985,1.4002,1.4042,1.4062,1.408,1.4109,1.4131,1.4161,1.4176,1.421,1.423,1.4256,1.4273,1.426,1.4324,1.431,1.4335,1.4335,1.435,1.4349,1.4409,1.4358,1.4358,1.4358,1.4358,0,1.3936,1.3972,1.3998,1.4025,1.4065,1.4081,1.412,1.4138,1.4164,1.4194,1.4201,1.4229,1.4248,1.4279,1.4292,1.4334,1.4342,1.4352,1.4356,1.4353,1.4352,1.4367,1.4366,1.436,1.4359,1.4359,1.4359,0,1.3973,1.3992,1.4039,1.4073,1.4083,1.4111,1.4141,1.4167,1.4182,1.422,1.423,1.4255,1.4291,1.431,1.4355,1.4364,1.4412,1.4412,1.4402,1.4404,1.4428,1.4427,1.4502,1.4513,1.4453,1.4453,1.4454,0,1.4005,1.4033,1.407,1.409,1.4109,1.4141,1.4164,1.4179,1.4202,1.4239,1.426,1.4297,1.4328,1.4385,1.4408,1.4442,1.4445,1.4469,1.445,1.4447,1.4448,1.4447,1.4451,1.4473,1.4474,1.4474,1.4474,0,1.4059,1.4066,1.4098,1.4133,1.4159,1.4187,1.4215,1.4231,1.4252,1.4277,1.4314,1.4338,1.4384,1.442,1.4457,1.4475,1.4479,1.448,1.4488,1.4487,1.448,1.4486,1.4413,1.4479,1.4478,1.4478,1.4478,1.4477,1.4096,1.4121,1.4151,1.4186,1.4209,1.4234,1.426,1.4279,1.431,1.435,1.4356,1.4396,1.4426,1.4475,1.4494,1.4525,1.452,1.4531,1.4535,1.4538,1.454,1.4473,1.4532,1.4532,1.4531,1.4531,1.4531,0,1.4152,1.4171,1.4203,1.4242,1.4269,1.4269,1.4299,1.4323,1.4358,1.4384,1.4414,1.4457,1.4492,1.4517,1.4553,1.4573,1.4576,1.4582,1.4582,1.4587,1.4542,1.4532,1.458,1.458,1.458,1.458,1.458,1.458,1.4185,1.4228,1.4239,1.4294,1.4313,1.4352,1.4369,1.4393,1.4415,1.4463,1.4492,1.4507,1.4533,1.4571,1.4604,1.461,1.4624,1.4631,1.4637,1.4595,1.459,1.4585,1.4576,1.4633,1.4633,1.468,1.4681,1.4681]}]]